Temperature
23 21 20 21 27 33 32 32 32 32 32 31 31 31 31 30 30 28 23 22 22 21 21 22 21 21 20 20 20 20 20 20 20 20 20 20 20 20 20 20 20 20 20 20 20 20 20 20 20
22 21 21 25 32 32 31 32 32 32 31 30 30 30 30 29 26 24 22 22 21 21 21 21 21 21 21 20 20 20 20 20 20 20 20 20 20 20 20 20 20 20 20 20 20 20 20 20 20
22 21 25 31 33 32 32 32 32 31 31 30 30 29 29 27 24 23 22 22 21 21 20 21 21 21 21 21 20 20 20 20 20 20 20 20 20 20 20 20 20 20 20 19 19 19 19 19 19
22 24 28 32 32 32 32 32 32 32 31 30 30 30 27 24 24 23 22 22 21 21 20 21 21 21 21 21 21 20 20 20 20 20 20 20 20 20 20 20 19 19 19 19 19 19 19 19 19
24 29 32 33 32 33 33 32 32 32 32 31 30 30 27 23 23 23 22 22 22 21 21 21 22 21 21 21 21 21 20 20 20 20 20 20 20 19 19 19 19 19 19 19 19 19 19 18 18
29 32 33 32 32 33 33 32 32 33 32 30 30 30 27 23 22 22 22 22 22 21 21 21 22 21 21 21 21 21 20 20 20 20 20 20 20 19 19 19 19 19 19 19 19 19 18 18 18
30 32 32 32 32 32 33 32 32 32 32 31 30 31 27 23 22 22 21 21 22 21 21 20 21 21 21 21 21 20 20 20 20 20 20 20 19 19 19 19 19 19 19 19 19 19 18 18 18
29 32 32 32 32 32 32 32 32 32 31 30 30 31 28 24 22 22 21 21 21 21 20 20 20 20 20 20 20 20 20 20 20 20 19 19 19 19 19 19 19 19 19 19 19 19 18 18 18
28 32 32 33 32 33 32 32 32 31 30 29 29 29 28 24 23 22 21 21 20 20 20 20 19 19 19 19 19 20 20 20 19 19 19 19 19 18 18 19 19 19 19 19 19 19 19 18 18
30 32 33 32 33 33 33 32 32 32 32 30 28 25 25 24 23 22 22 21 21 21 20 20 20 19 19 19 19 19 19 18 19 18 18 18 18 18 18 18 19 19 19 19 19 19 19 18 18
31 31 32 32 32 32 33 33 32 33 33 32 30 26 24 24 23 23 22 22 22 22 21 21 20 20 20 19 19 18 18 18 18 18 18 18 18 18 18 18 18 18 19 18 18 18 18 18 18
30 31 30 31 31 31 32 32 32 33 32 30 29 27 25 25 24 24 23 22 22 22 22 21 21 21 21 20 19 19 19 18 18 18 18 18 18 18 18 18 18 18 18 18 18 18 18 18 18
30 31 30 30 30 31 31 32 32 31 30 29 28 26 26 25 25 24 23 22 22 22 22 22 21 21 21 21 21 20 19 19 18 18 18 18 18 18 18 18 18 18 18 18 18 18 18 18 18
29 29 30 30 30 30 31 32 32 30 28 28 27 26 26 26 25 24 23 23 22 22 22 21 22 21 21 21 21 20 19 19 19 18 18 18 18 18 18 18 18 18 18 18 18 18 18 18 18
28 29 31 31 31 31 31 32 31 29 28 28 27 26 26 25 24 24 23 23 23 22 22 22 22 21 21 21 20 20 19 19 18 18 18 18 18 18 18 18 18 18 18 18 18 18 18 18 18
29 30 30 31 31 30 30 31 30 28 28 28 27 26 25 24 24 23 23 22 22 22 21 21 21 21 21 20 20 19 19 19 18 18 18 18 18 18 18 18 18 18 18 18 18 18 18 18 18
29 30 30 31 30 31 31 31 29 28 28 27 26 25 24 23 23 23 22 22 22 21 21 21 21 20 20 20 20 19 19 19 18 18 18 18 17 17 17 17 17 17 17 17 17 17 17 17 17
29 30 30 30 30 30 30 29 29 27 27 27 26 25 24 23 23 22 22 22 21 21 21 21 21 21 20 20 20 19 19 19 18 18 18 17 17 17 17 17 17 17 17 17 17 17 17 17 17
29 29 29 29 29 29 29 29 28 27 27 27 26 25 24 23 22 22 21 21 21 21 21 21 21 21 21 20 19 19 19 18 18 18 17 17 17 17 17 16 16 16 17 17 17 17 17 17 17
28 28 29 28 28 29 28 28 28 27 27 26 25 24 24 23 22 21 21 21 21 21 21 21 21 21 21 20 20 20 19 18 18 17 17 17 16 16 16 16 16 16 16 16 16 16 16 16 16
28 28 28 28 28 29 28 28 28 27 26 25 24 23 23 23 22 21 21 21 21 21 21 21 21 21 20 20 19 19 18 18 18 17 17 16 16 16 16 16 16 16 16 16 16 16 16 16 16
28 28 28 28 28 28 28 28 28 28 27 26 24 23 23 23 22 21 21 20 20 20 20 20 20 20 20 20 19 19 18 18 18 17 17 16 16 16 16 16 16 16 15 15 15 15 15 15 15
28 28 28 28 27 27 28 27 28 27 26 25 25 23 22 21 21 20 20 20 20 20 20 19 20 20 19 19 19 19 18 18 17 17 17 16 16 16 15 15 15 15 15 15 15 15 15 15 15
28 27 27 27 28 26 27 26 27 25 23 23 23 21 20 20 19 19 19 19 19 19 19 19 19 19 19 19 18 18 18 17 17 17 16 16 16 15 15 15 15 15 14 14 14 14 14 14 14
28 27 26 26 26 26 27 26 25 22 21 21 20 20 19 18 18 18 18 18 18 19 19 19 19 18 18 18 18 17 17 17 17 16 16 16 16 15 15 14 15 14 14 14 14 14 14 14 14
27 27 25 24 25 26 26 26 24 21 20 19 18 18 17 17 16 16 15 16 16 16 17 17 17 17 17 17 17 17 17 16 16 16 16 16 15 15 15 15 14 14 14 14 13 13 13 13 14
27 27 27 26 26 25 26 25 21 21 20 19 18 17 16 16 15 15 14 14 14 14 14 15 15 15 15 15 15 16 16 16 15 15 15 15 15 15 14 14 14 14 14 14 13 13 13 13 13
27 27 26 25 24 24 25 25 25 21 20 19 18 17 16 15 15 14 13 13 13 13 13 13 13 13 14 14 14 14 15 15 15 15 15 15 15 15 14 14 14 14 14 13 13 13 13 13 13
26 26 26 26 25 24 24 25 21 20 19 18 17 16 15 15 15 14 13 13 12 12 12 12 12 12 12 13 13 14 14 14 14 14 14 14 14 14 14 14 14 13 13 13 13 13 13 12 13
26 26 25 24 24 24 24 23 19 18 18 17 16 15 15 14 14 13 13 12 12 11 11 11 11 11 11 11 12 12 12 12 13 13 13 13 13 13 13 13 13 13 13 13 13 12 12 12 12
Wind_Speed
9 7 5 5 5 4 11 9 7 6 5 4 3 2 3 4 4 4 6 15 17 18 21 22 19 18 17 16 16 15 15 14 13 13 12 11 10 9 8 7 7 6 6 6 5 5 6 6 6
5 5 5 5 2 8 10 7 8 8 7 4 4 2 3 5 6 7 10 15 18 18 20 20 20 18 17 16 15 15 14 14 13 12 11 10 9 8 8 7 6 5 4 4 4 4 4 4 5
5 6 5 4 3 7 8 7 6 6 4 2 3 4 4 5 5 6 11 17 18 17 18 19 21 19 17 16 15 14 14 13 12 11 11 10 9 8 7 6 5 4 4 3 3 3 3 3 4
4 5 5 3 5 6 4 4 3 3 3 3 3 5 5 6 4 8 15 18 18 17 17 20 20 18 17 16 15 14 13 13 12 11 10 10 9 8 7 6 5 5 4 4 4 4 3 4 4
5 5 5 3 4 4 3 2 1 2 3 4 3 6 7 6 8 13 16 17 17 17 16 20 19 18 17 16 15 14 13 13 12 11 11 10 9 8 8 7 7 6 6 6 5 5 5 5 6
5 5 5 2 4 3 3 2 1 2 4 4 5 7 7 7 10 14 15 15 15 15 15 18 18 17 17 16 15 14 14 13 12 12 11 11 10 10 9 9 9 9 9 8 8 8 8 8 8
6 5 4 2 2 3 4 3 0 2 3 4 3 6 8 10 11 13 13 13 13 14 13 15 17 17 16 15 14 14 13 13 12 12 12 11 11 11 11 11 11 11 11 10 10 10 10 10 10
5 5 6 4 3 2 4 2 0 2 4 5 3 3 7 13 14 14 13 12 12 12 12 12 14 14 15 15 15 13 13 12 12 12 12 12 12 13 13 13 14 13 12 12 12 12 12 12 12
4 7 8 4 3 2 3 1 2 2 5 5 2 3 9 19 17 15 13 12 12 12 11 11 12 12 12 12 13 14 13 14 13 13 14 13 13 14 13 16 12 13 13 13 13 13 13 13 15
6 10 6 0 2 3 3 2 2 5 7 6 6 8 14 18 17 16 15 15 14 14 13 12 11 11 11 10 9 11 12 13 13 12 12 12 12 11 11 5 9 13 14 15 16 16 15 15 14
6 8 4 3 3 5 4 3 3 6 6 6 8 13 17 18 17 16 15 14 14 14 13 12 11 10 10 8 8 8 8 8 10 12 11 11 10 10 10 9 9 12 14 14 14 15 14 13 11
7 7 7 6 5 6 6 5 5 6 2 2 3 13 18 18 17 16 14 13 12 13 13 12 12 10 10 9 7 7 7 7 8 9 11 11 8 9 9 8 9 9 9 9 10 9 11 12 12
10 8 7 7 9 9 9 8 6 4 2 1 7 13 17 17 15 14 13 12 11 12 12 11 11 10 9 9 7 8 8 8 9 9 10 11 9 10 9 8 9 11 11 9 9 10 11 11 11
6 8 10 9 8 7 8 8 7 2 1 3 8 12 15 15 15 14 13 12 11 11 11 10 11 10 9 9 9 8 8 8 10 10 11 11 11 10 10 10 10 10 11 11 9 11 11 10 10
6 10 10 8 6 5 7 11 6 2 2 5 8 10 11 12 12 13 12 11 10 10 9 9 9 10 10 10 10 8 9 9 9 9 10 12 13 11 10 11 11 11 12 11 11 11 10 11 11
8 11 12 5 3 3 8 13 2 1 3 5 6 8 9 9 10 10 10 9 8 7 8 8 7 8 8 8 8 7 8 8 8 9 10 11 12 13 11 11 12 11 11 10 10 10 10 11 11
10 11 10 5 1 2 7 7 3 1 3 4 5 7 8 8 8 8 9 9 8 7 6 6 6 5 6 6 6 6 6 7 7 8 8 9 11 12 11 11 11 11 10 10 11 10 10 11 11
6 7 6 5 2 2 3 1 3 3 2 4 4 5 6 7 7 7 8 8 7 7 6 5 5 5 4 4 3 3 4 5 5 5 6 8 8 9 10 10 10 11 10 10 10 12 12 12 11
3 5 4 0 2 2 0 1 2 2 2 3 3 4 5 5 6 6 7 7 7 7 6 6 5 5 4 2 1 2 2 3 3 4 4 6 7 8 8 10 9 10 10 11 12 11 13 12 10
4 5 4 2 1 3 2 3 2 2 1 0 1 3 4 5 6 6 6 6 7 7 6 6 6 5 4 3 2 1 2 3 4 4 4 6 7 7 8 8 9 9 9 11 11 11 11 11 9
3 3 2 3 2 5 6 8 7 4 2 0 1 1 2 4 5 5 5 5 5 5 5 5 4 4 4 4 3 3 3 4 3 4 4 5 7 7 7 8 9 9 10 10 11 11 13 12 11
2 1 4 6 9 7 5 11 6 4 3 1 1 1 1 2 2 2 2 2 2 2 3 3 4 4 4 5 4 4 4 5 5 5 5 6 6 7 8 8 9 9 10 10 11 11 11 12 12
3 1 5 8 10 11 9 10 3 4 1 4 4 2 2 2 2 3 3 2 2 2 3 4 4 5 5 5 5 6 7 6 5 5 6 7 7 7 7 8 8 9 10 11 12 12 13 12 12
2 5 7 9 9 10 4 8 3 4 6 7 8 7 6 5 5 5 5 5 5 5 5 5 5 6 5 6 6 7 8 8 8 8 8 7 6 6 7 8 8 10 10 10 11 12 14 13 13
6 9 8 7 6 4 1 7 2 7 7 8 8 9 9 8 8 8 9 9 8 8 7 7 6 6 7 7 8 8 9 9 10 10 8 8 8 7 7 8 9 10 10 11 12 12 14 14 14
7 9 9 9 8 6 5 5 6 8 7 8 9 10 11 12 12 12 12 11 11 11 11 10 8 8 8 8 8 8 9 9 9 8 9 9 8 8 8 9 10 11 11 12 11 12 13 13 13
8 8 8 10 12 11 7 3 7 7 7 8 10 11 13 13 13 13 13 13 13 13 13 12 11 10 10 9 9 8 8 9 10 10 10 10 8 9 9 10 11 11 11 12 12 11 13 12 13
6 7 6 8 8 10 7 7 4 7 5 6 8 10 11 11 12 12 12 12 12 12 12 12 12 11 11 11 10 9 9 9 10 11 11 11 11 11 11 11 11 11 12 12 12 12 11 12 12
4 4 6 7 8 11 13 5 6 7 5 5 7 8 9 10 11 11 11 11 11 11 12 12 12 12 11 12 11 11 11 11 11 11 11 11 11 11 12 11 11 12 12 12 11 12 12 12 11
4 4 5 7 9 9 13 4 8 7 5 5 6 7 8 9 10 10 11 11 11 11 11 11 11 12 12 12 12 12 12 12 13 13 12 12 12 12 12 12 12 12 11 11 11 11 11 10 10
Wind_Direction
180 190 216 235 237 101 76 70 58 65 67 59 71 28 17 16 357 55 118 148 150 149 148 157 162 162 160 155 152 151 151 151 150 149 149 148 146 143 140 137 133 128 124 121 120 119 119 119 121
190 196 230 245 263 88 79 67 64 56 73 85 84 55 48 58 48 97 135 147 151 150 152 160 161 165 163 160 158 157 157 157 157 156 156 155 154 153 153 150 147 144 139 137 137 138 137 136 137
199 226 264 257 59 69 78 66 67 79 72 46 65 48 43 56 85 118 137 150 153 151 155 154 162 167 166 165 164 164 164 164 165 165 165 165 166 168 168 168 170 173 172 171 174 176 173 170 170
219 238 245 245 94 69 49 52 72 97 83 63 82 86 83 60 91 125 141 153 154 156 159 154 166 169 170 170 170 171 172 172 174 175 177 179 180 183 187 190 195 204 212 217 218 219 219 216 214
250 269 250 190 105 77 56 28 108 81 70 87 88 94 93 83 102 132 148 156 159 160 158 156 168 172 174 175 177 178 180 182 184 186 189 192 195 200 205 211 217 224 232 239 243 243 241 238 236
261 264 257 186 114 93 66 43 184 106 105 122 116 107 101 114 130 144 152 160 161 160 161 154 168 175 178 181 184 186 189 192 195 198 200 204 209 215 220 226 231 234 236 240 245 249 250 248 245
284 286 271 231 152 124 48 9 199 132 142 121 121 113 125 141 142 147 151 164 162 163 164 161 171 179 184 188 192 195 199 203 206 209 212 216 220 224 229 234 238 240 241 241 244 247 250 251 249
285 275 237 214 197 112 43 21 12 209 130 121 156 134 148 155 152 151 155 162 165 169 172 173 177 182 188 192 196 203 209 214 218 222 225 228 232 233 234 238 233 237 244 246 247 248 250 251 250
263 254 235 214 209 101 39 318 149 145 141 147 121 58 121 144 153 155 158 165 172 179 182 186 182 188 197 202 191 201 212 219 225 228 228 235 243 241 229 233 228 234 243 248 250 250 250 252 247
241 249 236 4 314 326 335 274 194 189 181 170 144 116 133 149 160 166 171 175 179 185 188 194 193 193 201 210 197 214 218 216 224 237 234 235 244 256 261 244 225 243 249 252 250 251 251 248 251
242 256 275 267 303 307 293 268 231 228 210 195 178 158 158 164 170 176 181 183 183 188 192 196 199 202 209 211 218 221 230 230 232 238 244 251 261 257 254 254 233 234 239 246 241 238 244 245 247
251 255 271 280 305 295 293 281 253 249 298 20 167 161 166 174 179 182 183 186 185 193 197 198 199 203 214 225 227 232 237 236 243 240 243 249 251 260 263 262 267 262 250 247 256 253 253 254 257
244 257 267 277 281 282 279 266 267 263 333 85 149 163 175 180 181 183 184 186 188 196 202 203 205 209 212 221 236 239 246 252 249 255 250 253 257 260 264 264 262 265 265 257 251 258 260 257 256
272 279 273 271 272 262 256 254 241 245 316 165 165 172 180 181 180 180 184 188 194 199 202 203 208 212 216 222 229 240 249 248 259 257 257 256 259 263 266 265 264 264 265 264 263 261 263 261 258
272 267 255 245 255 247 253 243 232 314 233 188 180 176 176 178 181 186 188 192 197 199 199 201 208 215 220 230 238 244 250 255 258 262 263 260 261 263 264 268 268 267 268 265 260 262 261 258 254
242 244 243 210 270 224 242 248 118 349 208 189 177 172 172 174 184 187 188 193 196 200 198 203 212 214 222 233 245 256 261 267 267 269 269 268 270 269 267 268 268 269 267 264 261 259 257 256 255
223 234 239 213 25 256 245 260 64 53 185 175 172 170 170 170 179 182 186 189 188 191 192 198 207 218 226 234 244 258 268 271 275 277 277 281 280 279 275 274 276 276 271 266 263 259 258 259 257
221 233 229 239 23 306 248 222 91 83 141 150 161 165 168 172 174 177 183 182 177 175 177 178 189 197 211 221 232 259 267 273 276 284 291 295 292 290 288 281 280 280 275 272 267 266 261 259 260
250 245 236 208 19 311 244 178 115 94 126 141 155 165 170 171 163 172 174 171 165 161 168 173 174 170 189 190 234 262 277 289 291 294 311 305 303 302 294 291 293 285 280 279 277 272 267 261 257
217 226 223 177 60 297 274 252 167 137 132 144 198 196 182 171 168 167 164 162 160 162 165 171 176 174 186 175 201 254 299 295 306 307 307 304 307 306 299 301 296 294 292 283 279 274 270 266 252
212 263 288 299 286 237 263 242 201 172 167 146 251 235 206 181 169 158 157 159 160 163 172 175 176 185 198 200 212 221 235 255 271 292 293 307 308 304 303 300 296 298 290 288 287 280 270 268 262
252 357 298 288 280 277 270 276 210 178 175 83 25 223 198 160 145 131 139 146 164 177 192 203 209 214 217 224 237 258 279 294 308 300 302 302 295 297 298 296 295 294 292 291 285 281 277 271 267
337 332 285 285 281 276 250 266 223 135 113 23 20 37 50 52 47 33 21 10 349 308 267 247 243 245 243 250 258 264 271 286 293 296 293 293 292 288 291 294 295 292 289 290 290 287 279 272 266
231 249 254 255 264 260 255 276 238 71 13 8 26 36 41 38 30 24 16 13 357 344 324 300 282 273 267 262 264 267 279 284 290 290 295 293 294 290 290 293 292 290 291 290 286 284 279 272 269
249 282 283 273 258 268 135 268 69 62 41 34 35 39 39 36 30 23 15 7 360 351 342 332 319 304 294 281 273 270 273 275 271 276 284 289 295 296 300 298 293 292 290 287 285 282 280 277 271
293 291 288 297 298 300 242 258 105 88 71 60 53 49 44 40 33 27 20 14 8 3 357 349 340 329 323 308 294 282 276 273 274 275 284 286 288 295 301 292 289 289 288 286 284 282 278 276 274
290 279 302 285 279 280 273 142 135 123 86 66 56 49 42 36 33 28 24 21 16 12 8 0 354 348 340 328 316 300 290 284 285 284 274 276 278 284 285 287 286 287 286 286 286 281 281 280 275
295 298 266 271 286 285 278 257 200 142 93 65 50 42 37 31 28 25 22 19 16 13 10 7 4 359 351 340 330 319 309 297 287 282 281 279 279 276 278 280 283 284 284 283 284 284 282 280 276
284 260 282 281 284 290 293 308 67 95 79 53 43 32 25 18 15 13 11 9 6 4 2 359 356 355 350 344 335 326 319 311 300 288 282 277 274 271 270 273 277 280 282 283 282 282 282 280 278
279 302 288 289 292 283 285 301 87 90 76 39 20 12 6 359 358 358 357 355 353 350 347 345 344 343 340 338 332 329 324 319 311 300 291 284 276 269 265 267 270 274 279 282 282 283 285 283 279
Height
1508 1508 1508 1511 1503 1491 1496 1493 1490 1490 1490 1494 1496 1496 1495 1497 1500 1509 1513 1513 1516 1519 1520 1523 1526 1529 1532 1535 1538 1540 1542 1544 1546 1547 1548 1550 1550 1551 1552 1553 1553 1554 1555 1555 1556 1556 1557 1557 1557
1510 1509 1511 1508 1492 1499 1501 1492 1493 1493 1496 1497 1498 1499 1499 1503 1508 1511 1512 1514 1517 1520 1522 1524 1527 1530 1533 1536 1538 1541 1543 1545 1546 1548 1549 1550 1551 1552 1553 1553 1554 1555 1555 1556 1556 1557 1557 1557 1558
1510 1510 1511 1497 1493 1499 1500 1494 1495 1497 1498 1499 1500 1501 1503 1507 1511 1512 1513 1515 1519 1522 1524 1525 1528 1530 1533 1536 1539 1541 1543 1545 1547 1548 1549 1550 1551 1552 1553 1553 1554 1555 1555 1556 1556 1556 1557 1557 1558
1512 1513 1508 1495 1497 1496 1496 1495 1496 1497 1499 1500 1501 1503 1507 1511 1512 1513 1513 1517 1520 1523 1526 1526 1528 1531 1534 1537 1539 1541 1543 1545 1546 1548 1549 1550 1551 1552 1552 1553 1554 1554 1555 1555 1555 1556 1556 1556 1557
1513 1509 1497 1494 1496 1494 1495 1496 1496 1496 1499 1500 1501 1503 1509 1512 1512 1513 1515 1519 1522 1525 1527 1527 1529 1532 1534 1537 1539 1541 1543 1545 1546 1547 1548 1549 1550 1551 1551 1552 1553 1553 1553 1554 1554 1554 1555 1555 1555
1513 1503 1497 1498 1498 1495 1495 1497 1496 1496 1499 1502 1502 1504 1511 1513 1514 1516 1518 1521 1525 1527 1529 1528 1530 1532 1534 1537 1539 1541 1542 1544 1546 1547 1548 1549 1549 1550 1550 1551 1551 1551 1552 1552 1552 1552 1553 1553 1554
1511 1500 1498 1498 1498 1496 1497 1497 1496 1496 1499 1501 1503 1504 1511 1514 1515 1517 1519 1522 1526 1528 1530 1529 1530 1532 1534 1536 1538 1540 1542 1544 1545 1546 1547 1548 1548 1548 1549 1549 1549 1549 1549 1550 1550 1550 1551 1551 1551
1511 1502 1497 1496 1498 1497 1497 1497 1498 1497 1499 1503 1505 1503 1509 1514 1515 1517 1519 1523 1525 1527 1529 1531 1532 1533 1535 1536 1538 1540 1541 1543 1544 1545 1545 1546 1546 1546 1547 1547 1547 1547 1547 1547 1547 1548 1548 1548 1549
1512 1504 1497 1495 1496 1496 1496 1496 1497 1499 1501 1503 1505 1506 1508 1511 1514 1517 1519 1522 1524 1526 1528 1530 1532 1533 1535 1538 1538 1539 1540 1541 1542 1543 1544 1544 1545 1546 1546 1545 1544 1545 1545 1545 1545 1545 1545 1546 1546
1508 1501 1494 1496 1496 1495 1496 1496 1496 1497 1498 1502 1505 1507 1508 1510 1513 1516 1518 1520 1522 1524 1526 1529 1532 1533 1535 1537 1538 1539 1540 1541 1541 1543 1543 1543 1544 1544 1544 1543 1542 1542 1542 1542 1542 1542 1542 1542 1543
1504 1499 1497 1498 1499 1498 1496 1495 1496 1494 1494 1497 1501 1505 1508 1511 1513 1516 1518 1520 1522 1524 1526 1528 1530 1531 1534 1536 1538 1538 1540 1540 1540 1541 1540 1541 1541 1541 1541 1541 1540 1539 1539 1539 1539 1539 1539 1540 1541
1504 1501 1502 1500 1500 1499 1497 1495 1495 1494 1494 1498 1501 1503 1506 1509 1512 1515 1517 1520 1522 1523 1525 1528 1529 1530 1531 1534 1536 1536 1537 1538 1539 1539 1538 1539 1538 1538 1538 1537 1538 1537 1536 1536 1536 1536 1537 1536 1537
1504 1501 1501 1501 1500 1499 1498 1495 1495 1495 1498 1499 1500 1502 1505 1508 1512 1515 1517 1519 1521 1522 1525 1526 1528 1529 1530 1531 1532 1534 1535 1536 1536 1535 1535 1535 1535 1535 1535 1533 1532 1532 1533 1532 1531 1532 1532 1531 1531
1503 1503 1501 1499 1498 1497 1497 1494 1495 1496 1498 1499 1500 1502 1504 1507 1511 1513 1516 1518 1520 1522 1524 1525 1526 1528 1528 1529 1530 1531 1532 1532 1532 1532 1532 1531 1530 1530 1530 1529 1528 1527 1527 1528 1527 1527 1526 1526 1526
1505 1501 1496 1494 1495 1494 1495 1492 1492 1497 1498 1498 1499 1501 1504 1507 1510 1512 1514 1517 1519 1521 1523 1523 1524 1526 1527 1528 1528 1529 1529 1529 1529 1529 1527 1526 1526 1526 1525 1524 1523 1522 1522 1521 1521 1521 1520 1520 1520
1499 1497 1495 1490 1493 1493 1496 1491 1492 1496 1496 1497 1499 1501 1504 1506 1509 1511 1514 1515 1518 1520 1520 1521 1523 1524 1525 1526 1526 1526 1527 1526 1525 1525 1524 1523 1522 1521 1520 1519 1518 1517 1516 1516 1515 1514 1514 1514 1514
1496 1495 1493 1490 1492 1491 1490 1489 1493 1496 1495 1497 1499 1501 1504 1506 1508 1510 1512 1514 1516 1517 1518 1519 1521 1522 1523 1524 1524 1524 1523 1522 1522 1521 1520 1519 1518 1517 1515 1514 1513 1512 1511 1510 1509 1509 1508 1508 1507
1496 1493 1495 1494 1492 1490 1490 1491 1493 1496 1496 1497 1499 1501 1504 1506 1507 1509 1511 1513 1514 1515 1516 1518 1519 1520 1521 1522 1522 1521 1521 1520 1519 1518 1516 1515 1514 1512 1511 1510 1508 1507 1505 1504 1503 1503 1502 1501 1501
1496 1496 1497 1496 1494 1492 1493 1493 1493 1496 1496 1498 1500 1502 1504 1505 1507 1508 1510 1511 1513 1514 1516 1517 1518 1519 1520 1520 1521 1520 1520 1519 1518 1516 1514 1512 1510 1509 1507 1506 1504 1502 1501 1499 1498 1497 1496 1495 1495
1497 1498 1497 1496 1495 1494 1494 1494 1493 1496 1497 1499 1501 1502 1504 1505 1507 1508 1509 1511 1512 1513 1515 1516 1517 1518 1518 1519 1518 1518 1517 1516 1515 1513 1511 1509 1507 1505 1504 1502 1500 1498 1496 1494 1493 1492 1490 1489 1490
1496 1496 1497 1497 1495 1493 1494 1494 1492 1494 1498 1500 1502 1503 1504 1505 1507 1509 1510 1511 1512 1514 1515 1516 1516 1516 1517 1517 1517 1516 1515 1514 1513 1511 1509 1506 1504 1502 1499 1497 1495 1493 1492 1490 1488 1487 1486 1484 1484
1499 1495 1497 1498 1499 1494 1496 1500 1489 1490 1494 1498 1501 1503 1504 1506 1508 1509 1511 1512 1513 1513 1514 1514 1514 1515 1515 1515 1515 1514 1513 1513 1511 1508 1506 1503 1500 1498 1496 1494 1491 1489 1488 1486 1484 1483 1480 1479 1478
1497 1497 1496 1496 1496 1497 1492 1498 1488 1491 1496 1499 1502 1504 1506 1507 1509 1510 1511 1511 1512 1513 1513 1513 1513 1512 1512 1512 1511 1511 1511 1509 1508 1505 1502 1500 1497 1495 1492 1490 1487 1485 1483 1481 1478 1476 1475 1474 1472
1497 1498 1496 1494 1493 1503 1496 1502 1496 1498 1506 1505 1506 1507 1508 1509 1509 1510 1510 1511 1511 1511 1511 1511 1511 1510 1509 1509 1508 1507 1506 1505 1504 1501 1499 1497 1495 1492 1489 1486 1483 1481 1478 1476 1473 1471 1469 1467 1466
1496 1500 1507 1507 1503 1500 1494 1500 1502 1509 1512 1512 1512 1511 1511 1511 1510 1510 1510 1509 1509 1509 1508 1508 1507 1506 1505 1505 1504 1503 1502 1501 1499 1497 1496 1493 1491 1489 1485 1482 1479 1476 1474 1471 1468 1466 1463 1461 1459
1495 1500 1512 1519 1511 1499 1493 1496 1504 1512 1515 1516 1516 1515 1514 1513 1512 1511 1511 1509 1508 1507 1505 1504 1503 1502 1501 1500 1499 1498 1497 1496 1495 1493 1491 1489 1486 1484 1481 1477 1474 1472 1469 1466 1463 1460 1458 1456 1453
1496 1495 1492 1502 1500 1504 1493 1494 1509 1511 1515 1517 1518 1518 1517 1516 1515 1514 1512 1510 1508 1506 1504 1502 1501 1499 1497 1496 1495 1493 1492 1490 1489 1487 1485 1483 1481 1478 1476 1473 1470 1467 1464 1461 1458 1455 1452 1450 1447
1496 1492 1497 1501 1512 1512 1498 1493 1493 1508 1513 1517 1519 1519 1519 1519 1517 1516 1514 1511 1509 1507 1504 1502 1499 1497 1494 1493 1491 1489 1487 1485 1482 1481 1479 1477 1474 1472 1470 1467 1465 1462 1459 1456 1453 1450 1447 1444 1441
1496 1496 1497 1495 1499 1508 1508 1499 1504 1510 1516 1518 1520 1521 1520 1519 1518 1516 1514 1512 1509 1507 1504 1501 1498 1495 1492 1489 1487 1484 1482 1479 1477 1474 1472 1470 1468 1466 1463 1461 1459 1456 1454 1451 1448 1445 1442 1439 1437
1495 1495 1497 1505 1503 1499 1502 1504 1512 1515 1518 1520 1521 1521 1520 1519 1518 1516 1514 1511 1508 1505 1502 1499 1496 1492 1489 1486 1483 1479 1476 1473 1470 1468 1465 1463 1460 1459 1457 1455 1453 1451 1448 1446 1443 1440 1438 1435 1433